| time (UTC) | temp C | wind direction | speed KPH | gust KPH | rain 1hr cm | rain 24hr cm | rain mn cm | humidity % | barometer mb |
| 20260510055036 | 11 | 85 | 4.8 | 9.7 | 0.00 | 0.18 | 0.18 | 95 | 1008.5 |
| 20260510054535 | 11 | 71 | 4.8 | 9.7 | 0.00 | 0.18 | 0.18 | 95 | 1008.5 |
| 20260510054036 | 11 | 107 | 3.2 | 8.0 | 0.00 | 0.18 | 0.18 | 95 | 1008.5 |
| 20260510053535 | 11 | 109 | 3.2 | 8.0 | 0.00 | 0.18 | 0.18 | 95 | 1008.5 |
| 20260510053037 | 11 | 104 | 3.2 | 4.8 | 0.00 | 0.18 | 0.18 | 95 | 1008.5 |
| 20260510052536 | 11 | 93 | 1.6 | 3.2 | 0.00 | 0.18 | 0.18 | 95 | 1008.4 |
| 20260510052035 | 11 | 102 | 1.6 | 4.8 | 0.00 | 0.18 | 0.18 | 95 | 1008.5 |
| 20260510051536 | 11 | 93 | 3.2 | 4.8 | 0.00 | 0.18 | 0.18 | 95 | 1008.5 |
| 20260510051033 | 11 | 87 | 1.6 | 4.8 | 0.00 | 0.18 | 0.18 | 95 | 1008.4 |
| 20260510050535 | 11 | 99 | 1.6 | 6.4 | 0.00 | 0.18 | 0.18 | 95 | 1008.4 |
| 20260510050034 | 11 | 104 | 3.2 | 6.4 | 0.00 | 0.18 | 0.18 | 95 | 1008.4 |
| 20260510045536 | 11 | 94 | 1.6 | 6.4 | 0.00 | 0.18 | 0.18 | 94 | 1008.4 |
| 20260510045033 | 11 | 104 | 1.6 | 3.2 | 0.00 | 0.18 | 0.18 | 94 | 1008.4 |
| 20260510044533 | 11 | 96 | 0.0 | 4.8 | 0.00 | 0.18 | 0.18 | 94 | 1008.4 |
| 20260510044035 | 11 | 103 | 3.2 | 4.8 | 0.00 | 0.18 | 0.18 | 94 | 1008.5 |
| 20260510043839 | 11 | 111 | 1.6 | 4.8 | 0.00 | 0.18 | 0.18 | 94 | 1008.5 |
| 20260510043035 | 11 | 96 | 1.6 | 4.8 | 0.00 | 0.18 | 0.18 | 94 | 1008.5 |
| 20260510042841 | 11 | 96 | 1.6 | 4.8 | 0.00 | 0.18 | 0.18 | 94 | 1008.5 |
| 20260510042034 | 11 | 93 | 1.6 | 6.4 | 0.00 | 0.18 | 0.18 | 94 | 1008.5 |
| 20260510041533 | 11 | 117 | 3.2 | 6.4 | 0.00 | 0.18 | 0.18 | 94 | 1008.6 |
| 20260510041035 | 11 | 113 | 3.2 | 6.4 | 0.00 | 0.18 | 0.18 | 94 | 1008.6 |
| 20260510040532 | 12 | 94 | 3.2 | 8.0 | 0.00 | 0.18 | 0.18 | 94 | 1008.6 |
| 20260510040033 | 12 | 97 | 4.8 | 8.0 | 0.00 | 0.18 | 0.18 | 94 | 1008.6 |
| 20260510035534 | 12 | 127 | 3.2 | 6.4 | 0.00 | 0.18 | 0.18 | 94 | 1008.7 |
| 20260510035032 | 12 | 114 | 3.2 | 8.0 | 0.00 | 0.18 | 0.18 | 94 | 1008.7 |
| 20260510034534 | 12 | 103 | 3.2 | 8.0 | 0.00 | 0.18 | 0.18 | 94 | 1008.7 |
| 20260510034035 | 12 | 102 | 3.2 | 6.4 | 0.00 | 0.18 | 0.18 | 94 | 1008.7 |
| 20260510033534 | 12 | 99 | 0.0 | 8.0 | 0.00 | 0.18 | 0.18 | 94 | 1008.8 |
| 20260510033032 | 12 | 107 | 3.2 | 8.0 | 0.00 | 0.18 | 0.18 | 94 | 1008.8 |
| 20260510032531 | 12 | 94 | 1.6 | 4.8 | 0.00 | 0.18 | 0.18 | 94 | 1009.0 |
| 20260510032032 | 12 | 94 | 0.0 | 3.2 | 0.00 | 0.18 | 0.18 | 94 | 1008.9 |
| 20260510031531 | 12 | 96 | 0.0 | 4.8 | 0.00 | 0.18 | 0.18 | 93 | 1008.9 |
| 20260510031033 | 12 | 97 | 0.0 | 4.8 | 0.00 | 0.18 | 0.18 | 93 | 1009.0 |
| 20260510030837 | 12 | 65 | 1.6 | 4.8 | 0.00 | 0.18 | 0.18 | 93 | 1009.0 |
| 20260510030341 | 12 | 96 | 1.6 | 4.8 | 0.00 | 0.18 | 0.18 | 93 | 1008.9 |
| 20260510025531 | 12 | 109 | 1.6 | 4.8 | 0.00 | 0.18 | 0.18 | 93 | 1009.0 |
| 20260510025035 | 12 | 104 | 1.6 | 6.4 | 0.00 | 0.18 | 0.18 | 93 | 1009.0 |
| 20260510024530 | 12 | 96 | 3.2 | 6.4 | 0.00 | 0.18 | 0.18 | 93 | 1009.0 |
| 20260510024032 | 12 | 114 | 3.2 | 6.4 | 0.00 | 0.18 | 0.18 | 92 | 1009.0 |
| 20260510023531 | 12 | 100 | 1.6 | 3.2 | 0.00 | 0.18 | 0.18 | 92 | 1009.1 |
| 20260510023031 | 12 | 106 | 0.0 | 3.2 | 0.00 | 0.18 | 0.18 | 92 | 1009.1 |
| 20260510022531 | 12 | 96 | 0.0 | 1.6 | 0.00 | 0.18 | 0.18 | 91 | 1009.1 |
| 20260510022031 | 12 | 96 | 0.0 | 1.6 | 0.00 | 0.18 | 0.18 | 91 | 1009.0 |
| 20260510021531 | 12 | 96 | 0.0 | 3.2 | 0.00 | 0.18 | 0.18 | 91 | 1009.0 |
| 20260510021344 | 12 | 96 | 1.6 | 3.2 | 0.00 | 0.18 | 0.18 | 91 | 1009.0 |
| 20260510020531 | 12 | 104 | 1.6 | 3.2 | 0.00 | 0.18 | 0.18 | 91 | 1009.1 |
| 20260510020030 | 12 | 99 | 0.0 | 3.2 | 0.00 | 0.18 | 0.18 | 91 | 1009.2 |
| 20260510015529 | 12 | 93 | 1.6 | 3.2 | 0.00 | 0.18 | 0.18 | 90 | 1009.2 |
| 20260510015031 | 12 | 99 | 0.0 | 8.0 | 0.00 | 0.18 | 0.18 | 90 | 1009.2 |
| 20260510014528 | 12 | 118 | 1.6 | 8.0 | 0.00 | 0.18 | 0.18 | 90 | 1009.2 |
| 20260510014345 | 12 | 116 | 1.6 | 3.2 | 0.00 | 0.18 | 0.18 | 90 | 1009.1 |
| 20260510013530 | 12 | 110 | 1.6 | 3.2 | 0.00 | 0.18 | 0.18 | 90 | 1009.1 |
| 20260510013032 | 12 | 89 | 0.0 | 1.6 | 0.00 | 0.18 | 0.18 | 89 | 1009.1 |
| 20260510012528 | 12 | 87 | 0.0 | 6.4 | 0.00 | 0.18 | 0.18 | 89 | 1009.2 |
| 20260510012031 | 12 | 114 | 1.6 | 6.4 | 0.00 | 0.18 | 0.18 | 89 | 1009.2 |
| 20260510011529 | 12 | 114 | 3.2 | 6.4 | 0.00 | 0.18 | 0.18 | 89 | 1009.3 |
| 20260510011028 | 12 | 102 | 1.6 | 11.3 | 0.00 | 0.18 | 0.18 | 88 | 1009.3 |
| 20260510010529 | 13 | 86 | 6.4 | 17.7 | 0.00 | 0.18 | 0.18 | 88 | 1009.3 |
| 20260510010030 | 13 | 116 | 8.0 | 17.7 | 0.00 | 0.18 | 0.18 | 87 | 1009.2 |
| 20260510005531 | 13 | 110 | 6.4 | 11.3 | 0.00 | 0.18 | 0.18 | 87 | 1009.2 |
| 20260510005029 | 13 | 55 | 3.2 | 16.1 | 0.00 | 0.18 | 0.18 | 86 | 1009.2 |
| 20260510004530 | 13 | 110 | 6.4 | 17.7 | 0.00 | 0.18 | 0.18 | 86 | 1009.3 |
| 20260510004027 | 13 | 93 | 8.0 | 17.7 | 0.00 | 0.18 | 0.18 | 87 | 1009.4 |
| 20260510003837 | 13 | 94 | 8.0 | 14.5 | 0.00 | 0.18 | 0.18 | 87 | 1009.5 |
| 20260510003029 | 13 | 116 | 6.4 | 14.5 | 0.00 | 0.18 | 0.18 | 87 | 1009.6 |
| 20260510002529 | 13 | 137 | 8.0 | 14.5 | 0.00 | 0.18 | 0.18 | 87 | 1009.5 |
| 20260510002028 | 13 | 99 | 4.8 | 11.3 | 0.00 | 0.18 | 0.18 | 89 | 1009.6 |
| 20260510001832 | 13 | 102 | 3.2 | 6.4 | 0.00 | 0.18 | 0.18 | 90 | 1009.7 |
| 20260510001028 | 13 | 123 | 1.6 | 6.4 | 0.03 | 0.18 | 0.18 | 91 | 1009.7 |
| 20260510000540 | 13 | 85 | 3.2 | 6.4 | 0.03 | 0.18 | 0.18 | 91 | 1009.7 |
| 20260510000030 | 12 | 117 | 0.0 | 1.6 | 0.03 | 0.18 | 0.18 | 92 | 1009.8 |
| 20260509235526 | 12 | 106 | 0.0 | 1.6 | 0.03 | 0.18 | 0.18 | 92 | 1009.9 |
| 20260509235026 | 12 | 106 | 0.0 | 1.6 | 0.03 | 0.18 | 0.18 | 92 | 1010.0 |
| 20260509234528 | 12 | 106 | 0.0 | 1.6 | 0.08 | 0.18 | 0.18 | 92 | 1010.1 |
| 20260509234028 | 12 | 106 | 0.0 | 0.0 | 0.13 | 0.18 | 0.18 | 92 | 1009.9 |
| 20260509233835 | 12 | 106 | 0.0 | 0.0 | 0.18 | 0.18 | 0.18 | 92 | 1009.9 |
| 20260509233026 | 12 | 106 | 0.0 | 0.0 | 0.18 | 0.18 | 0.18 | 91 | 1009.9 |
| 20260509232529 | 12 | 106 | 0.0 | 0.0 | 0.18 | 0.18 | 0.18 | 91 | 1009.9 |
| 20260509232026 | 13 | 106 | 0.0 | 0.0 | 0.18 | 0.18 | 0.18 | 91 | 1009.9 |
| 20260509231527 | 13 | 106 | 0.0 | 0.0 | 0.18 | 0.18 | 0.18 | 91 | 1010.0 |
| 20260509231026 | 13 | 106 | 0.0 | 0.0 | 0.15 | 0.15 | 0.15 | 90 | 1010.1 |
| 20260509230526 | 13 | 106 | 0.0 | 0.0 | 0.15 | 0.15 | 0.15 | 89 | 1010.1 |
| 20260509230153 | 13 | 106 | 0.0 | 1.6 | 0.15 | 0.15 | 0.15 | 88 | 1010.0 |
| 20260509230122 | 13 | 106 | 0.0 | 1.6 | 0.15 | 0.15 | 0.15 | 89 | 1010.2 |
| 20260509225027 | 13 | 107 | 0.0 | 1.6 | 0.15 | 0.15 | 0.15 | 88 | 1010.0 |
| 20260509224525 | 13 | 107 | 0.0 | 1.6 | 0.10 | 0.10 | 0.13 | 86 | 1010.0 |
| 20260509224028 | 13 | 107 | 0.0 | 1.6 | 0.05 | 0.05 | 0.05 | 85 | 1010.0 |
| 20260509223525 | 13 | 107 | 0.0 | 0.0 | 0.00 | 0.00 | 0.00 | 84 | 1009.9 |
| 20260509223027 | 13 | 107 | 0.0 | 0.0 | 0.00 | 0.00 | 0.00 | 84 | 1010.1 |
| 20260509222842 | 13 | 107 | 0.0 | 0.0 | 0.00 | 0.00 | 0.00 | 83 | 1009.9 |
| 20260509222026 | 13 | 107 | 0.0 | 0.0 | 0.00 | 0.00 | 0.00 | 83 | 1010.0 |
| 20260509221526 | 13 | 107 | 0.0 | 0.0 | 0.00 | 0.00 | 0.00 | 83 | 1009.9 |
| 20260509221025 | 13 | 107 | 0.0 | 0.0 | 0.00 | 0.00 | 0.00 | 83 | 1009.8 |
| 20260509220526 | 13 | 107 | 0.0 | 0.0 | 0.00 | 0.00 | 0.00 | 82 | 1009.8 |
| 20260509220024 | 13 | 107 | 0.0 | 1.6 | 0.00 | 0.00 | 0.00 | 82 | 1009.7 |
| 20260509215527 | 13 | 107 | 0.0 | 1.6 | 0.00 | 0.00 | 0.00 | 82 | 1009.7 |
| 20260509215024 | 13 | 107 | 0.0 | 0.0 | 0.00 | 0.00 | 0.00 | 81 | 1009.6 |
| 20260509214837 | 13 | 107 | 0.0 | 1.6 | 0.00 | 0.00 | 0.00 | 81 | 1009.7 |
| 20260509214025 | 13 | 107 | 0.0 | 1.6 | 0.00 | 0.00 | 0.00 | 81 | 1009.8 |
| 20260509213526 | 13 | 107 | 1.6 | 1.6 | 0.00 | 0.00 | 0.00 | 80 | 1009.8 |
| 20260509213027 | 14 | 107 | 1.6 | 1.6 | 0.00 | 0.00 | 0.00 | 80 | 1009.6 |
| 20260509212524 | 14 | 107 | 0.0 | 1.6 | 0.00 | 0.00 | 0.00 | 79 | 1009.4 |
| 20260509212026 | 14 | 109 | 0.0 | 6.4 | 0.00 | 0.00 | 0.00 | 79 | 1009.3 |
| 20260509211526 | 14 | 111 | 1.6 | 6.4 | 0.00 | 0.00 | 0.00 | 79 | 1009.2 |
| 20260509211026 | 14 | 100 | 1.6 | 3.2 | 0.00 | 0.00 | 0.00 | 78 | 1009.1 |
| 20260509210841 | 14 | 97 | 0.0 | 1.6 | 0.00 | 0.00 | 0.00 | 78 | 1009.1 |
| 20260509210025 | 14 | 97 | 0.0 | 1.6 | 0.00 | 0.00 | 0.00 | 78 | 1009.1 |
| 20260509205526 | 14 | 104 | 0.0 | 1.6 | 0.00 | 0.00 | 0.00 | 78 | 1009.1 |
| 20260509205037 | 15 | 104 | 0.0 | 1.6 | 0.00 | 0.00 | 0.00 | 77 | 1009.1 |
| 20260509204854 | 15 | 104 | 0.0 | 0.0 | 0.00 | 0.00 | 0.00 | 77 | 1009.1 |
| 20260509204024 | 15 | 104 | 0.0 | 1.6 | 0.00 | 0.00 | 0.00 | 76 | 1009.0 |
| 20260509203526 | 15 | 104 | 0.0 | 1.6 | 0.00 | 0.00 | 0.00 | 77 | 1009.0 |
| 20260509203023 | 15 | 99 | 0.0 | 4.8 | 0.00 | 0.00 | 0.00 | 76 | 1009.0 |
| 20260509202525 | 15 | 99 | 0.0 | 6.4 | 0.00 | 0.00 | 0.00 | 76 | 1009.0 |
| 20260509202024 | 15 | 123 | 3.2 | 6.4 | 0.00 | 0.00 | 0.00 | 76 | 1008.9 |
| 20260509201849 | 15 | 89 | 3.2 | 6.4 | 0.00 | 0.00 | 0.00 | 76 | 1008.7 |
| 20260509201024 | 15 | 111 | 3.2 | 4.8 | 0.00 | 0.00 | 0.00 | 76 | 1008.8 |
| 20260509200523 | 15 | 90 | 3.2 | 6.4 | 0.00 | 0.00 | 0.00 | 75 | 1008.7 |
| 20260509200024 | 15 | 104 | 3.2 | 6.4 | 0.00 | 0.00 | 0.00 | 75 | 1008.7 |
| 20260509195524 | 15 | 100 | 3.2 | 9.7 | 0.00 | 0.00 | 0.00 | 75 | 1008.7 |
| 20260509195025 | 15 | 104 | 3.2 | 9.7 | 0.00 | 0.00 | 0.00 | 74 | 1008.6 |
| 20260509194833 | 15 | 117 | 4.8 | 8.0 | 0.00 | 0.00 | 0.00 | 74 | 1008.6 |
| 20260509194026 | 15 | 110 | 4.8 | 16.1 | 0.00 | 0.00 | 0.00 | 74 | 1008.5 |
| 20260509193524 | 15 | 94 | 4.8 | 16.1 | 0.00 | 0.00 | 0.00 | 74 | 1008.5 |
| 20260509193242 | 15 | 89 | 6.4 | 16.1 | 0.00 | 0.00 | 0.00 | 74 | 1008.3 |
| 20260509193149 | 15 | 103 | 6.4 | 11.3 | 0.00 | 0.00 | 0.00 | 74 | 1008.5 |
| 20260509192023 | 15 | 89 | 6.4 | 16.1 | 0.00 | 0.00 | 0.00 | 74 | 1008.2 |
| 20260509191522 | 15 | 97 | 8.0 | 14.5 | 0.00 | 0.00 | 0.00 | 74 | 1008.2 |
| 20260509191025 | 16 | 92 | 8.0 | 20.9 | 0.00 | 0.00 | 0.00 | 74 | 1008.2 |
| 20260509190522 | 16 | 104 | 8.0 | 20.9 | 0.00 | 0.00 | 0.00 | 75 | 1008.1 |
| 20260509190028 | 16 | 100 | 8.0 | 17.7 | 0.00 | 0.00 | 0.00 | 75 | 1008.0 |
| 20260509185850 | 16 | 103 | 8.0 | 17.7 | 0.00 | 0.00 | 0.00 | 75 | 1007.9 |
| 20260509185021 | 16 | 96 | 9.7 | 17.7 | 0.00 | 0.03 | 0.00 | 75 | 1008.0 |
| 20260509184520 | 16 | 94 | 6.4 | 14.5 | 0.00 | 0.03 | 0.00 | 76 | 1007.9 |
| 20260509184024 | 16 | 94 | 8.0 | 14.5 | 0.00 | 0.03 | 0.00 | 76 | 1007.8 |
| 20260509183521 | 16 | 87 | 6.4 | 11.3 | 0.00 | 0.05 | 0.00 | 76 | 1007.9 |
| 20260509183022 | 16 | 121 | 6.4 | 11.3 | 0.00 | 0.05 | 0.00 | 76 | 1007.7 |
| 20260509182522 | 16 | 86 | 4.8 | 11.3 | 0.00 | 0.05 | 0.00 | 76 | 1007.6 |
| 20260509182022 | 16 | 102 | 8.0 | 11.3 | 0.00 | 0.05 | 0.00 | 75 | 1007.8 |
| 20260509181522 | 16 | 96 | 4.8 | 17.7 | 0.00 | 0.05 | 0.00 | 76 | 1007.7 |
| 20260509181023 | 16 | 114 | 8.0 | 17.7 | 0.00 | 0.05 | 0.00 | 75 | 1007.7 |
| 20260509180520 | 16 | 100 | 8.0 | 17.7 | 0.00 | 0.05 | 0.00 | 75 | 1007.7 |
| 20260509180019 | 17 | 110 | 8.0 | 19.3 | 0.00 | 0.05 | 0.00 | 75 | 1007.7 |
| 20260509175523 | 17 | 111 | 8.0 | 19.3 | 0.00 | 0.05 | 0.00 | 75 | 1007.8 |
| 20260509175020 | 17 | 103 | 8.0 | 24.1 | 0.00 | 0.05 | 0.00 | 75 | 1007.7 |
| 20260509174522 | 17 | 79 | 9.7 | 24.1 | 0.00 | 0.05 | 0.00 | 74 | 1007.8 |
| 20260509174020 | 17 | 114 | 11.3 | 24.1 | 0.00 | 0.05 | 0.00 | 75 | 1007.8 |
| 20260509173522 | 17 | 100 | 11.3 | 24.1 | 0.00 | 0.05 | 0.00 | 74 | 1007.8 |
| 20260509173022 | 17 | 121 | 14.5 | 20.9 | 0.00 | 0.05 | 0.00 | 74 | 1007.9 |
| 20260509172519 | 17 | 133 | 11.3 | 19.3 | 0.00 | 0.05 | 0.00 | 75 | 1007.9 |
| 20260509172020 | 17 | 123 | 11.3 | 19.3 | 0.00 | 0.05 | 0.00 | 74 | 1007.9 |
| 20260509171517 | 17 | 76 | 6.4 | 22.5 | 0.00 | 0.05 | 0.00 | 75 | 1007.8 |
| 20260509171330 | 17 | 114 | 9.7 | 22.5 | 0.00 | 0.05 | 0.00 | 75 | 1007.9 |
| 20260509170842 | 17 | 107 | 9.7 | 19.3 | 0.00 | 0.05 | 0.00 | 74 | 1007.9 |
| 20260509170021 | 17 | 117 | 9.7 | 14.5 | 0.00 | 0.05 | 0.00 | 75 | 1007.9 |
| 20260509165518 | 17 | 124 | 6.4 | 17.7 | 0.00 | 0.05 | 0.00 | 75 | 1007.9 |
| 20260509165021 | 17 | 117 | 11.3 | 17.7 | 0.00 | 0.05 | 0.00 | 75 | 1007.9 |
| 20260509164519 | 17 | 102 | 9.7 | 24.1 | 0.00 | 0.05 | 0.00 | 75 | 1008.1 |
| 20260509164018 | 17 | 100 | 12.9 | 24.1 | 0.00 | 0.05 | 0.00 | 75 | 1008.1 |
| 20260509163533 | 17 | 121 | 11.3 | 22.5 | 0.00 | 0.05 | 0.00 | 75 | 1008.2 |
| 20260509163125 | 17 | 113 | 14.5 | 22.5 | 0.00 | 0.05 | 0.00 | 75 | 1008.3 |
| 20260509162018 | 17 | 135 | 14.5 | 24.1 | 0.00 | 0.05 | 0.00 | 75 | 1008.2 |
| 20260509161519 | 18 | 96 | 8.0 | 25.7 | 0.00 | 0.05 | 0.00 | 76 | 1008.3 |
| 20260509161337 | 18 | 59 | 12.9 | 25.7 | 0.00 | 0.05 | 0.00 | 75 | 1008.3 |
| 20260509160518 | 18 | 72 | 11.3 | 22.5 | 0.00 | 0.05 | 0.00 | 75 | 1008.2 |
| 20260509160017 | 17 | 97 | 12.9 | 29.0 | 0.00 | 0.05 | 0.00 | 75 | 1008.2 |
| 20260509155517 | 18 | 120 | 12.9 | 29.0 | 0.00 | 0.05 | 0.00 | 75 | 1008.2 |
| 20260509155017 | 18 | 113 | 14.5 | 25.7 | 0.00 | 0.05 | 0.00 | 74 | 1008.3 |
| 20260509154519 | 18 | 92 | 12.9 | 27.4 | 0.00 | 0.05 | 0.00 | 74 | 1008.4 |
| 20260509154019 | 18 | 71 | 16.1 | 27.4 | 0.00 | 0.05 | 0.00 | 73 | 1008.3 |
| 20260509153516 | 18 | 128 | 14.5 | 25.7 | 0.00 | 0.05 | 0.00 | 73 | 1008.3 |
| 20260509153019 | 18 | 89 | 12.9 | 25.7 | 0.00 | 0.05 | 0.00 | 73 | 1008.1 |
| 20260509152516 | 18 | 102 | 14.5 | 22.5 | 0.00 | 0.05 | 0.00 | 73 | 1008.1 |
| 20260509152015 | 18 | 90 | 12.9 | 27.4 | 0.00 | 0.05 | 0.00 | 73 | 1008.1 |
| 20260509151518 | 18 | 116 | 14.5 | 27.4 | 0.00 | 0.05 | 0.00 | 72 | 1008.2 |
| 20260509151016 | 18 | 116 | 16.1 | 25.7 | 0.00 | 0.05 | 0.00 | 72 | 1008.3 |
| 20260509150826 | 18 | 96 | 12.9 | 25.7 | 0.00 | 0.05 | 0.00 | 72 | 1008.3 |
| 20260509150014 | 18 | 104 | 14.5 | 24.1 | 0.00 | 0.05 | 0.00 | 72 | 1008.3 |
| 20260509145515 | 18 | 90 | 9.7 | 27.4 | 0.00 | 0.05 | 0.00 | 73 | 1008.3 |
| 20260509145014 | 18 | 110 | 16.1 | 27.4 | 0.00 | 0.05 | 0.00 | 72 | 1008.4 |
| 20260509144516 | 19 | 110 | 14.5 | 24.1 | 0.00 | 0.05 | 0.00 | 73 | 1008.5 |
| 20260509144321 | 19 | 110 | 12.9 | 27.4 | 0.00 | 0.05 | 0.00 | 71 | 1008.6 |
| 20260509143511 | 19 | 93 | 14.5 | 27.4 | 0.00 | 0.05 | 0.00 | 69 | 1008.6 |
| 20260509143012 | 19 | 85 | 14.5 | 25.7 | 0.00 | 0.05 | 0.00 | 69 | 1008.7 |
| 20260509142516 | 19 | 102 | 16.1 | 25.7 | 0.00 | 0.05 | 0.00 | 69 | 1008.9 |
| 20260509142017 | 19 | 117 | 14.5 | 25.7 | 0.00 | 0.05 | 0.00 | 68 | 1008.9 |
| 20260509141513 | 19 | 93 | 16.1 | 25.7 | 0.00 | 0.05 | 0.00 | 68 | 1008.9 |
| 20260509141015 | 20 | 96 | 16.1 | 25.7 | 0.00 | 0.05 | 0.00 | 68 | 1008.8 |
| 20260509140513 | 20 | 89 | 14.5 | 27.4 | 0.00 | 0.05 | 0.00 | 68 | 1008.9 |
| 20260509140328 | 20 | 106 | 16.1 | 27.4 | 0.00 | 0.05 | 0.00 | 68 | 1009.0 |
| 20260509135513 | 20 | 130 | 14.5 | 27.4 | 0.00 | 0.05 | 0.00 | 69 | 1008.9 |
| 20260509135321 | 20 | 120 | 12.9 | 27.4 | 0.00 | 0.05 | 0.00 | 68 | 1009.0 |
| 20260509134512 | 20 | 110 | 11.3 | 20.9 | 0.00 | 0.05 | 0.00 | 69 | 1009.0 |
| 20260509134321 | 20 | 121 | 14.5 | 29.0 | 0.00 | 0.05 | 0.00 | 70 | 1009.0 |
| 20260509133514 | 20 | 99 | 14.5 | 29.0 | 0.00 | 0.05 | 0.00 | 69 | 1009.0 |
| 20260509133013 | 20 | 102 | 11.3 | 24.1 | 0.00 | 0.05 | 0.00 | 70 | 1009.1 |
| 20260509132514 | 20 | 63 | 14.5 | 24.1 | 0.00 | 0.05 | 0.00 | 70 | 1009.2 |
| 20260509132124 | 20 | 93 | 17.7 | 24.1 | 0.00 | 0.05 | 0.00 | 70 | 1009.3 |
| 20260509132119 | 20 | 111 | 16.1 | 24.1 | 0.00 | 0.05 | 0.00 | 72 | 1009.4 |
| 20260509132113 | 20 | 104 | 12.9 | 22.5 | 0.00 | 0.05 | 0.00 | 71 | 1009.2 |
| 20260509132049 | 20 | 113 | 14.5 | 24.1 | 0.00 | 0.05 | 0.00 | 70 | 1009.2 |
| 20260509130012 | 20 | 96 | 14.5 | 24.1 | 0.00 | 0.05 | 0.00 | 72 | 1009.4 |
| 20260509125512 | 20 | 63 | 14.5 | 30.6 | 0.00 | 0.05 | 0.00 | 71 | 1009.4 |
| 20260509125012 | 20 | 111 | 14.5 | 30.6 | 0.00 | 0.05 | 0.00 | 72 | 1009.4 |
| 20260509124511 | 20 | 113 | 16.1 | 27.4 | 0.00 | 0.05 | 0.00 | 71 | 1009.5 |
| 20260509124013 | 20 | 113 | 12.9 | 24.1 | 0.00 | 0.05 | 0.00 | 73 | 1009.4 |
| 20260509123512 | 20 | 124 | 14.5 | 24.1 | 0.00 | 0.05 | 0.00 | 73 | 1009.4 |
| 20260509123011 | 20 | 89 | 12.9 | 24.1 | 0.00 | 0.05 | 0.00 | 72 | 1009.4 |
| 20260509122510 | 20 | 104 | 17.7 | 24.1 | 0.00 | 0.05 | 0.00 | 70 | 1009.5 |
| 20260509122011 | 20 | 118 | 16.1 | 24.1 | 0.00 | 0.05 | 0.00 | 70 | 1009.4 |
| 20260509121511 | 20 | 96 | 9.7 | 22.5 | 0.00 | 0.05 | 0.00 | 71 | 1009.4 |
| 20260509121010 | 20 | 121 | 14.5 | 20.9 | 0.00 | 0.05 | 0.00 | 70 | 1009.4 |
| 20260509120513 | 20 | 125 | 12.9 | 25.7 | 0.00 | 0.05 | 0.00 | 69 | 1009.4 |
| 20260509120011 | 20 | 118 | 9.7 | 25.7 | 0.00 | 0.05 | 0.00 | 69 | 1009.4 |
| 20260509115513 | 20 | 114 | 16.1 | 25.7 | 0.00 | 0.05 | 0.00 | 70 | 1009.5 |
| 20260509115010 | 20 | 96 | 11.3 | 25.7 | 0.00 | 0.05 | 0.00 | 68 | 1009.7 |
| 20260509114510 | 20 | 78 | 14.5 | 25.7 | 0.00 | 0.05 | 0.00 | 68 | 1009.8 |
| 20260509114009 | 20 | 116 | 14.5 | 24.1 | 0.00 | 0.05 | 0.00 | 68 | 1009.9 |
| 20260509113509 | 20 | 93 | 9.7 | 22.5 | 0.00 | 0.05 | 0.00 | 68 | 1010.0 |
| 20260509113317 | 20 | 103 | 14.5 | 22.5 | 0.00 | 0.05 | 0.00 | 66 | 1010.1 |
| 20260509112519 | 20 | 117 | 12.9 | 19.3 | 0.00 | 0.05 | 0.00 | 68 | 1010.1 |
| 20260509112317 | 20 | 128 | 9.7 | 19.3 | 0.00 | 0.05 | 0.00 | 69 | 1010.2 |
| 20260509111509 | 19 | 107 | 9.7 | 19.3 | 0.00 | 0.05 | 0.00 | 70 | 1010.3 |
| 20260509111011 | 19 | 93 | 9.7 | 19.3 | 0.00 | 0.05 | 0.00 | 70 | 1010.3 |
| 20260509110509 | 19 | 109 | 12.9 | 19.3 | 0.00 | 0.05 | 0.00 | 70 | 1010.3 |
| 20260509110010 | 19 | 116 | 11.3 | 20.9 | 0.00 | 0.05 | 0.00 | 69 | 1010.4 |
| 20260509105635 | 19 | 107 | 8.0 | 24.1 | 0.00 | 0.05 | 0.00 | 72 | 1010.6 |
| 20260509105604 | 19 | 107 | 12.9 | 20.9 | 0.00 | 0.05 | 0.00 | 71 | 1010.5 |
| 20260509104510 | 19 | 107 | 12.9 | 24.1 | 0.00 | 0.05 | 0.00 | 71 | 1010.6 |
| 20260509104010 | 19 | 102 | 11.3 | 22.5 | 0.00 | 0.05 | 0.00 | 71 | 1010.5 |
| 20260509103510 | 18 | 111 | 12.9 | 22.5 | 0.00 | 0.05 | 0.00 | 71 | 1010.4 |
| 20260509103008 | 18 | 125 | 11.3 | 19.3 | 0.00 | 0.05 | 0.00 | 74 | 1010.5 |
| 20260509102508 | 18 | 123 | 8.0 | 20.9 | 0.00 | 0.05 | 0.00 | 72 | 1010.5 |
| 20260509102008 | 18 | 80 | 11.3 | 20.9 | 0.00 | 0.05 | 0.00 | 72 | 1010.4 |
| 20260509101508 | 19 | 128 | 11.3 | 20.9 | 0.00 | 0.05 | 0.00 | 72 | 1010.5 |
| 20260509101315 | 18 | 49 | 11.3 | 20.9 | 0.00 | 0.05 | 0.00 | 72 | 1010.6 |
| 20260509100507 | 18 | 103 | 9.7 | 20.9 | 0.00 | 0.05 | 0.00 | 73 | 1010.6 |
| 20260509100313 | 18 | 103 | 9.7 | 17.7 | 0.00 | 0.05 | 0.00 | 73 | 1010.6 |
| 20260509095507 | 18 | 93 | 9.7 | 17.7 | 0.00 | 0.05 | 0.00 | 72 | 1010.7 |
| 20260509095009 | 18 | 127 | 9.7 | 19.3 | 0.00 | 0.05 | 0.00 | 74 | 1010.9 |
| 20260509094508 | 18 | 154 | 8.0 | 19.3 | 0.00 | 0.05 | 0.00 | 74 | 1010.8 |
| 20260509094007 | 18 | 103 | 9.7 | 19.3 | 0.00 | 0.05 | 0.00 | 75 | 1010.7 |
| 20260509093818 | 18 | 107 | 8.0 | 19.3 | 0.00 | 0.05 | 0.00 | 74 | 1010.8 |
| 20260509093005 | 18 | 83 | 9.7 | 20.9 | 0.00 | 0.05 | 0.00 | 74 | 1010.7 |
| 20260509092520 | 18 | 110 | 9.7 | 20.9 | 0.00 | 0.05 | 0.00 | 75 | 1010.9 |
| 20260509092007 | 17 | 99 | 9.7 | 24.1 | 0.00 | 0.05 | 0.00 | 76 | 1010.9 |
| 20260509091817 | 17 | 106 | 14.5 | 24.1 | 0.00 | 0.05 | 0.00 | 75 | 1010.9 |
| 20260509091007 | 17 | 124 | 9.7 | 19.3 | 0.00 | 0.05 | 0.00 | 77 | 1010.9 |
| 20260509090506 | 17 | 97 | 8.0 | 22.5 | 0.00 | 0.05 | 0.00 | 76 | 1010.7 |
| 20260509090007 | 17 | 109 | 9.7 | 24.1 | 0.00 | 0.05 | 0.00 | 77 | 1010.8 |
| 20260509085506 | 17 | 106 | 11.3 | 24.1 | 0.00 | 0.05 | 0.00 | 79 | 1010.8 |
| 20260509085007 | 17 | 76 | 11.3 | 22.5 | 0.00 | 0.05 | 0.00 | 78 | 1010.8 |
| 20260509084815 | 17 | 100 | 9.7 | 14.5 | 0.00 | 0.05 | 0.00 | 78 | 1010.8 |
| 20260509084021 | 17 | 92 | 6.4 | 17.7 | 0.00 | 0.05 | 0.00 | 80 | 1010.8 |
| 20260509083507 | 16 | 111 | 12.9 | 17.7 | 0.00 | 0.05 | 0.00 | 77 | 1010.8 |
| 20260509083007 | 16 | 113 | 8.0 | 17.7 | 0.00 | 0.05 | 0.00 | 80 | 1010.9 |
| 20260509082505 | 16 | 114 | 8.0 | 17.7 | 0.00 | 0.05 | 0.00 | 81 | 1010.9 |
| 20260509082005 | 16 | 131 | 8.0 | 19.3 | 0.00 | 0.05 | 0.00 | 83 | 1011.0 |
| 20260509081832 | 16 | 93 | 6.4 | 19.3 | 0.00 | 0.05 | 0.00 | 81 | 1010.9 |
| 20260509081017 | 16 | 73 | 12.9 | 19.3 | 0.00 | 0.05 | 0.00 | 81 | 1010.9 |
| 20260509080504 | 16 | 83 | 9.7 | 16.1 | 0.00 | 0.05 | 0.00 | 83 | 1011.0 |
| 20260509080005 | 15 | 116 | 6.4 | 16.1 | 0.00 | 0.05 | 0.00 | 84 | 1010.9 |
| 20260509075506 | 15 | 92 | 9.7 | 16.1 | 0.00 | 0.05 | 0.00 | 84 | 1010.9 |
| 20260509075005 | 15 | 94 | 8.0 | 11.3 | 0.00 | 0.05 | 0.00 | 84 | 1011.0 |
| 20260509074519 | 15 | 117 | 6.4 | 11.3 | 0.00 | 0.05 | 0.00 | 85 | 1011.0 |
| 20260509074006 | 15 | 121 | 6.4 | 16.1 | 0.00 | 0.05 | 0.00 | 86 | 1011.0 |
| 20260509073812 | 15 | 114 | 8.0 | 16.1 | 0.00 | 0.05 | 0.00 | 86 | 1011.1 |
| 20260509073309 | 15 | 73 | 8.0 | 16.1 | 0.00 | 0.05 | 0.00 | 86 | 1011.1 |
| 20260509072931 | 15 | 121 | 11.3 | 19.3 | 0.00 | 0.05 | 0.00 | 86 | 1011.1 |
| 20260509072925 | 15 | 55 | 6.4 | 19.3 | 0.00 | 0.05 | 0.00 | 87 | 1011.1 |
| 20260509071813 | 15 | 113 | 8.0 | 16.1 | 0.00 | 0.05 | 0.00 | 87 | 1011.0 |
| 20260509071004 | 15 | 113 | 6.4 | 14.5 | 0.00 | 0.05 | 0.00 | 87 | 1011.1 |
| 20260509070505 | 14 | 89 | 6.4 | 9.7 | 0.00 | 0.05 | 0.00 | 87 | 1011.1 |
| 20260509070006 | 14 | 123 | 4.8 | 14.5 | 0.00 | 0.05 | 0.00 | 88 | 1011.2 |
| 20260509065504 | 14 | 99 | 4.8 | 14.5 | 0.00 | 0.05 | 0.00 | 88 | 1011.3 |
| 20260509065000 | 14 | 114 | 3.2 | 8.0 | 0.00 | 0.05 | 0.00 | 89 | 1011.3 |
| 20260509064501 | 14 | 113 | 3.2 | 6.4 | 0.00 | 0.05 | 0.00 | 90 | 1011.3 |
| 20260509064000 | 13 | 130 | 3.2 | 6.4 | 0.00 | 0.05 | 0.00 | 90 | 1011.3 |
| 20260509063502 | 13 | 94 | 1.6 | 6.4 | 0.00 | 0.05 | 0.00 | 91 | 1011.4 |
| 20260509063310 | 13 | 94 | 1.6 | 6.4 | 0.00 | 0.05 | 0.00 | 91 | 1011.4 |
| 20260509062504 | 13 | 106 | 3.2 | 8.0 | 0.00 | 0.05 | 0.00 | 91 | 1011.4 |
| 20260509062003 | 13 | 131 | 3.2 | 8.0 | 0.00 | 0.05 | 0.00 | 92 | 1011.3 |
| 20260509061505 | 13 | 97 | 1.6 | 6.4 | 0.00 | 0.05 | 0.00 | 92 | 1011.3 |
| 20260509061002 | 13 | 96 | 0.0 | 6.4 | 0.00 | 0.05 | 0.00 | 92 | 1011.4 |
| 20260509060502 | 13 | 121 | 1.6 | 4.8 | 0.00 | 0.05 | 0.00 | 92 | 1011.3 |
| 20260509060000 | 13 | 93 | 0.0 | 3.2 | 0.00 | 0.05 | 0.00 | 92 | 1011.3 |
| 20260509055500 | 13 | 97 | 1.6 | 3.2 | 0.00 | 0.05 | 0.00 | 93 | 1011.3 |